{"data":{"norad_id":81104,"epoch":"2026-08-12T09:57:40.744224Z","epoch_age_seconds":3391025,"freshness":"OLD","line1":"1 81104U          26224.41505491  .00008062  00000+0  21223-3 0  9997","line2":"2 81104  52.0097 116.4959 3261197 113.8533 283.5266  8.91157749    11","mean_motion":8.91157749,"eccentricity":0.3261197,"inclination_deg":52.0097,"raan_deg":116.4959,"arg_perigee_deg":113.8533,"mean_anomaly_deg":283.5266,"bstar":0.00021223,"rev_number":1,"period_min":161.58755300236,"perigee_km":244.2548813374,"apogee_km":6653.9761734547,"semimajor_km":9827.252527396,"source":"CELESTRAK","updated_at":"2026-09-11T09:00:30.306949Z"}}